TimeCDT,TemperatureF,Dew PointF,Humidity,Sea Level PressureIn,VisibilityMPH,Wind Direction,Wind SpeedMPH,Gust SpeedMPH,PrecipitationIn,Events,Conditions,WindDirDegrees,DateUTC
12:53 AM,73.9,71.1,91,29.86,7.0,Calm,Calm,-,N/A,,Clear,0,2013-08-31 05:53:00
1:53 AM,73.0,70.0,90,29.86,6.0,NNE,3.5,-,N/A,,Clear,20,2013-08-31 06:53:00
2:53 AM,73.0,70.0,90,29.87,6.0,Calm,Calm,-,N/A,,Clear,0,2013-08-31 07:53:00
3:53 AM,73.0,70.0,90,29.87,6.0,Calm,Calm,-,N/A,,Clear,0,2013-08-31 08:53:00
4:53 AM,73.0,70.0,90,29.87,6.0,Calm,Calm,-,N/A,,Clear,0,2013-08-31 09:53:00
5:53 AM,71.1,69.1,93,29.88,5.0,Calm,Calm,-,N/A,,Clear,0,2013-08-31 10:53:00
6:53 AM,71.1,69.1,93,29.90,4.0,Calm,Calm,-,N/A,,Clear,0,2013-08-31 11:53:00
7:01 AM,70.0,69.1,97,29.91,2.0,Calm,Calm,-,N/A,,Clear,0,2013-08-31 12:01:00
7:16 AM,70.0,69.1,97,29.92,3.0,Calm,Calm,-,N/A,,Clear,0,2013-08-31 12:16:00
7:28 AM,71.1,69.1,93,29.92,2.5,Calm,Calm,-,N/A,,Clear,0,2013-08-31 12:28:00
7:43 AM,72.0,70.0,93,29.92,3.0,Calm,Calm,-,N/A,,Clear,0,2013-08-31 12:43:00
7:53 AM,73.0,70.0,90,29.91,3.0,Calm,Calm,-,N/A,,Clear,0,2013-08-31 12:53:00
8:53 AM,80.1,70.0,71,29.91,5.0,Calm,Calm,-,N/A,,Haze,0,2013-08-31 13:53:00
9:53 AM,84.0,71.1,65,29.91,6.0,Variable,3.5,-,N/A,,Haze,0,2013-08-31 14:53:00
10:53 AM,87.1,71.1,59,29.90,6.0,West,3.5,-,N/A,,Haze,270,2013-08-31 15:53:00
11:53 AM,91.0,72.0,53,29.88,7.0,Variable,3.5,-,N/A,,Clear,0,2013-08-31 16:53:00
12:53 PM,95.0,68.0,41,29.86,8.0,South,5.8,-,N/A,,Clear,180,2013-08-31 17:53:00
1:53 PM,97.0,68.0,39,29.83,9.0,Variable,3.5,-,N/A,,Clear,0,2013-08-31 18:53:00
2:42 PM,99.0,66.0,34,29.83,10.0,Variable,4.6,-,N/A,Thunderstorm,Clear,0,2013-08-31 19:42:00
2:53 PM,100.0,66.9,34,29.81,10.0,SW,8.1,-,N/A,,Clear,230,2013-08-31 19:53:00
3:01 PM,99.0,66.9,35,29.82,10.0,SSW,8.1,-,N/A,Thunderstorm,Clear,200,2013-08-31 20:01:00
3:30 PM,96.1,66.9,38,29.82,9.0,West,9.2,-,N/A,Thunderstorm,Thunderstorm,280,2013-08-31 20:30:00
3:45 PM,93.0,68.0,44,29.82,8.0,NW,6.9,-,0.00,Rain-Thunderstorm,Light Rain,310,2013-08-31 20:45:00
3:53 PM,88.0,70.0,55,29.83,7.0,North,11.5,18.4,0.00,Rain-Thunderstorm,Light Thunderstorms and Rain,360,2013-08-31 20:53:00
4:39 PM,78.1,73.0,84,29.83,8.0,Variable,6.9,-,0.00,,Scattered Clouds,0,2013-08-31 21:39:00
4:53 PM,81.0,71.1,72,29.81,9.0,NNE,3.5,-,0.00,,Clear,30,2013-08-31 21:53:00
5:53 PM,84.0,75.0,74,29.79,9.0,Calm,Calm,-,N/A,,Clear,0,2013-08-31 22:53:00
6:53 PM,89.1,75.9,65,29.79,9.0,Calm,Calm,-,N/A,,Clear,0,2013-08-31 23:53:00
7:53 PM,82.9,78.1,85,29.80,10.0,Calm,Calm,-,N/A,,Clear,0,2013-09-01 00:53:00
8:53 PM,79.0,77.0,94,29.80,9.0,Calm,Calm,-,N/A,,Clear,0,2013-09-01 01:53:00
9:53 PM,77.0,75.9,96,29.81,4.0,Calm,Calm,-,N/A,,Clear,0,2013-09-01 02:53:00
10:21 PM,77.0,75.9,96,29.83,1.8,Calm,Calm,-,N/A,,Clear,0,2013-09-01 03:21:00
10:44 PM,75.9,75.9,100,29.82,0.5,Calm,Calm,-,N/A,Fog,Fog,0,2013-09-01 03:44:00
10:53 PM,75.9,75.9,100,29.81,0.8,Calm,Calm,-,N/A,,Mist,0,2013-09-01 03:53:00
11:10 PM,75.9,75.0,97,29.82,1.0,Calm,Calm,-,N/A,,Clear,0,2013-09-01 04:10:00
11:22 PM,75.0,73.9,96,29.82,2.0,Calm,Calm,-,N/A,,Clear,0,2013-09-01 04:22:00
11:30 PM,73.9,73.9,100,29.82,1.5,Calm,Calm,-,N/A,,Clear,0,2013-09-01 04:30:00
11:53 PM,73.9,73.9,100,29.80,0.8,Calm,Calm,-,N/A,,Clear,0,2013-09-01 04:53:00